User: anonymous   Login
Location: Bonny Doon Airfield
(37.0704°N, 122.1252°W)
Time: 03:36:27
(UTC-07:00)
Language:

BREEZE M DEB (TANK) - Orbit

View from above orbital plane
View from above orbital plane
View from above satellite
View from above satellite

Ground track
Ground track

The orbit data is extracted from the following two-line orbital elements,

1 33437U 08057B   16149.41922386  .00001183  00000-0  35069-3 0  9995
2 33437  49.5537 215.1424 4990230 155.9419 239.1376  5.59498677152318
Epoch (UTC): 28 May 2016 10:03:40
Eccentricity: 0.4990230
inclination: 49.5537°
perigee height: 336 km
apogee height: 13713 km
right ascension of ascending node: 215.1424°
argument of perigee: 155.9419°
revolutions per day: 5.59498677
mean anomaly at epoch: 239.1376°
orbit number at epoch: 15231

The dashed part of the orbit path shows where the satellite is in the earth's shadow,  

DLR